Change the Weather History Date:

Friday, December 7, 2012

  Actual Average (KNKT) Record (KNKT)
Temperature  
Mean Temperature 55 °F -  
Max Temperature 64 °F 58 °F 78 °F (1998)
Min Temperature 46 °F 39 °F 23 °F (2010)
Degree Days  
Heating Degree Days 10    
Growing Degree Days 5 (Base 50)    
Moisture  
Dew Point 56 °F    
Average Humidity 92    
Maximum Humidity 100    
Minimum Humidity 73    
Precipitation  
Precipitation 0.88 in - - ()
Sea Level Pressure  
Sea Level Pressure 30.06 in    
Wind  
Wind Speed 6 mph (East)    
Max Wind Speed 10 mph    
Max Gust Speed -    
Visibility 7 miles    
Events Rain    
Averages and records for this station are not official NWS values.
T = Trace of Precipitation, MM = Missing Value Source: NWS Daily Summary

Daily Weather History Graph

Daily Weather History Graph

Search for Another Location

Airport or City:

Trip Planner

Search our weather history database for the weather conditions in past years. The results will help you decide how hot, cold, wet, or windy it might be!

Date:

Astronomy

Dec. 07, 2012 Rise Set
Actual Time 7:02 AM EST 4:57 PM EST
Civil Twilight 6:34 AM EST 5:24 PM EST
Nautical Twilight 6:03 AM EST 5:56 PM EST
Astronomical Twilight 5:32 AM EST 6:26 PM EST
Moon 12:33 AM EST (12/7) 12:40 PM EST (12/7)
Length of Visible Light 10h 50m
Length of Day
9h 54m
Last Quarter, 39% of the Moon is Illuminated
Dec 7
Last Quarter
Dec 13
New
Dec 20
First Quarter
Dec 28
Full
Jan 4
Last Quarter

Hourly Weather History & Observations

Time (EST) Temp. Windchill Dew Point Humidity Pressure Visibility Wind Dir Wind Speed Gust Speed Precip Events Conditions
12:57 AM 46.0 °F 43.9 °F 41.0 °F 83% 30.19 in 10.0 mi NNE 4.6 mph - N/A   Clear
1:57 AM 46.0 °F 43.1 °F 42.1 °F 86% 30.18 in 10.0 mi NNE 5.8 mph - N/A   Clear
3:57 AM 48.0 °F - 43.0 °F 83% 30.16 in 10.0 mi NNE 8.1 mph - N/A   Mostly Cloudy
4:57 AM 48.0 °F - 44.1 °F 86% 30.15 in 10.0 mi NNE 9.2 mph - N/A   Mostly Cloudy
5:57 AM 50.0 °F - 45.0 °F 83% 30.15 in 10.0 mi NE 8.1 mph - N/A   Overcast
6:57 AM 48.9 °F - 46.0 °F 90% 30.15 in 10.0 mi NE 8.1 mph - N/A   Scattered Clouds
7:07 AM - - - N/A% - - North - - N/A   Unknown
7:57 AM 51.1 °F - 46.9 °F 86% 30.16 in 10.0 mi NNE 9.2 mph - N/A   Mostly Cloudy
8:57 AM 55.0 °F - 50.0 °F 83% 30.16 in 10.0 mi NNE 6.9 mph - N/A   Mostly Cloudy
9:57 AM 59.0 °F - 52.0 °F 78% 30.15 in 10.0 mi NE 6.9 mph - N/A   Mostly Cloudy
10:57 AM 64.0 °F - 55.0 °F 73% 30.14 in 10.0 mi NE 5.8 mph - N/A   Mostly Cloudy
11:57 AM 64.0 °F - 57.9 °F 80% 30.10 in 8.0 mi ENE 5.8 mph - 0.01 in Rain Light Rain
12:30 PM - - - N/A% - - North - - N/A   Unknown
12:57 PM 61.0 °F - 57.9 °F 90% 30.08 in 5.0 mi East 5.8 mph - 0.05 in Rain Rain
1:57 PM 61.0 °F - 59.0 °F 93% 30.06 in 6.0 mi East 5.8 mph - 0.03 in Rain Light Rain
2:52 PM 60.8 °F - 59.0 °F 94% 30.04 in 1.8 mi East 5.8 mph - 0.07 in Rain Heavy Rain
2:57 PM 60.1 °F - 59.0 °F 96% 30.06 in 1.5 mi East 3.5 mph - 0.08 in Rain Heavy Rain
3:07 PM 60.8 °F - 59.0 °F 94% 30.04 in 2.0 mi Calm Calm - 0.03 in Rain Heavy Rain
3:15 PM - - - N/A% - - North - - N/A   Unknown
3:31 PM 60.8 °F - 60.8 °F 100% 30.04 in 1.0 mi Calm Calm - 0.20 in Rain Heavy Rain
3:35 PM - - - N/A% - - North - - N/A   Unknown
3:41 PM 60.8 °F - 60.8 °F 100% 30.03 in 1.0 mi NNE 4.6 mph - 0.28 in Rain Heavy Rain
3:52 PM 62.6 °F - 60.8 °F 94% 30.04 in 0.8 mi Calm Calm - 0.42 in Rain Heavy Rain
3:57 PM 62.1 °F - 60.1 °F 93% 30.05 in 0.8 mi North 3.5 mph - 0.51 in Rain Heavy Rain
4:09 PM 62.6 °F - 60.8 °F 94% 30.04 in 1.0 mi Calm Calm - 0.12 in Rain Rain
4:38 PM 62.6 °F - 60.8 °F 94% 30.03 in 10.0 mi East 5.8 mph - 0.13 in   Overcast
4:57 PM 62.1 °F - 60.1 °F 93% 30.04 in 9.0 mi East 6.9 mph - 0.13 in   Overcast
5:16 PM 60.8 °F - 59.0 °F 94% 30.02 in 8.0 mi East 6.9 mph - N/A   Overcast
5:24 PM 60.8 °F - 59.0 °F 94% 30.02 in 8.0 mi East 6.9 mph - N/A   Overcast
5:53 PM 60.8 °F - 59.0 °F 94% 30.02 in 7.0 mi East 4.6 mph - 0.00 in   Mostly Cloudy
5:57 PM 61.0 °F - 59.0 °F 93% 30.04 in 7.0 mi East 4.6 mph - 0.00 in   Mostly Cloudy
6:06 PM 60.8 °F - 59.0 °F 94% 30.02 in 7.0 mi ESE 5.8 mph - N/A   Mostly Cloudy
6:57 PM 61.0 °F - 60.1 °F 97% 30.04 in 9.0 mi SE 10.4 mph - 0.00 in   Mostly Cloudy
7:57 PM 62.1 °F - 60.1 °F 93% 30.03 in 10.0 mi SSE 9.2 mph - 0.01 in   Mostly Cloudy
8:57 PM 63.0 °F - 62.1 °F 97% 30.03 in 5.0 mi SSW 8.1 mph - 0.01 in Rain Light Rain
9:32 PM 62.6 °F - 60.8 °F 94% 30.01 in 9.0 mi ESE 8.1 mph - 0.00 in   Overcast
9:57 PM 61.0 °F - 60.1 °F 97% 30.02 in 8.0 mi SE 5.8 mph - 0.00 in Rain Light Rain
10:19 PM 60.8 °F - 60.8 °F 100% 30.01 in 7.0 mi SE 4.6 mph - 0.01 in   Overcast
10:29 PM 60.8 °F - 60.8 °F 100% 30.01 in 2.5 mi SE 6.9 mph - 0.04 in Rain Heavy Rain
10:36 PM 60.8 °F - 60.8 °F 100% 30.01 in 2.5 mi SE 5.8 mph - 0.05 in Rain Light Rain
10:50 PM 60.8 °F - 60.8 °F 100% 30.01 in 9.0 mi SE 4.6 mph - 0.05 in   Overcast
10:57 PM 61.0 °F - 60.1 °F 97% 30.01 in 9.0 mi SE 4.6 mph - 0.05 in   Overcast
11:46 PM 60.8 °F - 60.8 °F 100% 29.99 in 6.0 mi Calm Calm - 0.00 in   Overcast
11:57 PM - - - N/A% 30.01 in 5.0 mi Calm Calm - 0.00 in   Haze